Location: Dumpton Point
(51.3500°N, 1.4433°E)
Time: 21:34:02
(UTC+00:00)

Vanguard 2 Rocket - Pass Details

Date: 28 September 2022
Orbit: 555 x 3321 km, 32.9° (Epoch: 05 December)

Event Time Altitude Azimuth Distance (km) Brightness Sun altitude
Rises 00:22:41 0° 223° (SW) 5,362 - -40.0°
Reaches altitude 10° 00:28:46 10° 203° (SSW) 3,696 - -39.7°
Maximum altitude 00:33:00 14° 175° (S) 2,900 - -39.6°
Drops below altitude 10° 00:36:24 10° 145° (SE) 2,826 - -39.4°
Sets 00:39:56 0° 119° (ESE) 3,390 - -39.3°
